Regional Weather Roundup
Issued by NWS Charleston, WV

Home | Current Version | Previous Version | Text Only | Print | Product List | Glossary On
Versions: 1 2 3 4 5 6 7 8 9 10 11 12 13 14 15 16 17 18 19 20 21 22 23 24 25 26 27 28 29 30 31 32 33 34 35 36 37 38 39 40 41 42 43 44 45 46 47 48
000
ASUS41 KRLX 301210
RWRRLX
West Virginia Regional Weather Roundup
National Weather Service Charleston WV
800 AM EDT THU JUL 30 2015

Note: "fair" indicates few or no clouds below 12,000 feet with no
significant weather and/or obstructions to visibility.

WVZ003-301300-
Northern Panhandle of West Virginia

CITY           SKY/WX    TMP DP  RH WIND       PRES   REMARKS
WHEELING       PTSUNNY   73  63  70 NW8       29.99S
$$

WVZ009-301300-
Northwest West Virginia

CITY           SKY/WX    TMP DP  RH WIND       PRES   REMARKS
PARKERSBURG    CLOUDY    74  65  73 NW3       30.02R
$$

WVZ006-301300-
Western West Virginia

CITY           SKY/WX    TMP DP  RH WIND       PRES   REMARKS
HUNTINGTON     CLOUDY    75  70  84 N6        30.01R
$$

WVZ015-301300-
West Central West Virginia

CITY           SKY/WX    TMP DP  RH WIND       PRES   REMARKS
CHARLESTON     CLOUDY    76  73  91 CALM      30.00R FOG
$$

WVZ022-031-301300-
North Central West Virginia

CITY           SKY/WX    TMP DP  RH WIND       PRES   REMARKS
CLARKSBURG     CLOUDY    74  72  93 CALM      29.98S FOG
MORGANTOWN     LGT RAIN  74  70  87 S3        29.98F FOG
$$

WVZ025-035-042-045-301300-
Southern West Virginia

CITY           SKY/WX    TMP DP  RH WIND       PRES   REMARKS
BECKLEY        LGT RAIN  71  68  90 W5        30.08R FOG
LOGAN          FOG       73  73 100 CALM      30.01R VSB 3/4
BLUEFIELD      CLOUDY    72  68  87 W5        30.11R
LEWISBURG      LGT RAIN  70  68  93 CALM      30.06S
$$

WVZ047-301300-
Northern Mountains of West Virginia

CITY           SKY/WX    TMP DP  RH WIND       PRES   REMARKS
ELKINS         CLOUDY    70  68  93 CALM      30.03S FOG
$$

WVZ052-301300-
Eastern Panhandle of West Virginia

CITY           SKY/WX    TMP DP  RH WIND       PRES   REMARKS
MARTINSBURG    MOSUNNY   77  73  87 S5        29.92S
PETERSBURG     PTSUNNY  N/A N/A N/A CALM      29.97S FOG
$$


USA.gov is the U.S. government's official web portal to all federal, state and local government web resources and services.